Flag for Syria Weather past 2 weeks in Damascus, Syria

Now
93 °F

Sunny.


Feels Like: 89 °F
Forecast: 59 / 100 °F
Wind: 12 mph from Southwest

Location: Damascus Int. Airport

Current Time: Jul 31, 2015 at 12:33:29 PM

Latest Report: Jul 31, 2015 at 12:00 PM


Visibility: 10 mi

Pressure: 29.80 "Hg (27.60 "Hg at 689m altitude)

Humidity: 19%

Dew point: 45 °F

Location of DamascusLocation

Historic Weather in Damascus — Graph

°F

Damascus temperature yesterday

Maximum temperature yesterday: 97 °F (at 3:00 PM)
Minimum temperature yesterday: 66 °F (at 6:00 AM)
Average temperature yesterday: 83 °F

Past Weeks' High & Low Weather Summary

 TemperatureHumidityPressure
High106 °F (Jul 18, 5:00 PM)100% (Jul 28, 10:00 PM)29.89 "Hg (Jul 28, 10:00 PM)
Low59 °F (Jul 23, 6:00 AM)6% (Jul 22, 7:00 PM)29.65 "Hg (Jul 19, 5:00 PM)
Average84 °F38%29.77 "Hg
* Reported Jul 16 2:00 PM — Jul 31 11:00 AM, Damascus, Weather by CustomWeather, © 2015

Note: Actual official high and low records may vary slightly from our data, if they occured in-between our weather recording intervals... More about our weather records

Advertising

Damascus weather history for previous 24 hours

 ConditionsComfort  
Time TempWeatherWind HumidityBarometerVisibility
11:00 AM
Fri, Jul 31
90 °FSunny.12 mph21%29.83 "Hg10 mi
10:00 AM86 °FSunny.9 mph24%29.83 "Hg10 mi
9:00 AM79 °FSunny.No wind32%29.83 "Hg10 mi
8:00 AM75 °FSunny.No wind41%29.83 "Hg10 mi
7:00 AM68 °FSunny.No wind46%29.83 "Hg10 mi
6:00 AM68 °FClear.5 mph49%29.83 "Hg10 mi
5:00 AM72 °FClear.12 mph47%29.80 "Hg10 mi
4:00 AM68 °FClear.7 mph46%29.80 "Hg10 mi
3:00 AM72 °FClear.9 mph41%29.80 "Hg10 mi
2:00 AM73 °FClear.12 mph33%29.80 "Hg10 mi
1:00 AM73 °FClear.9 mph33%29.80 "Hg10 mi
12:00 AM73 °FClear.9 mph36%29.80 "Hg10 mi
11:00 PM
Thu, Jul 30
79 °FClear.7 mph37%29.80 "Hg10 mi
10:00 PM81 °FClear.7 mph34%29.83 "Hg10 mi
9:00 PM82 °FClear.7 mph32%29.80 "Hg10 mi
8:00 PM86 °FSunny.16 mph27%29.77 "Hg10 mi
7:00 PM90 °FSunny.21 mph22%29.77 "Hg10 mi
6:00 PM91 °FSunny.23 mph18%29.74 "Hg10 mi
5:00 PM93 °FSunny.23 mph17%29.74 "Hg10 mi
4:00 PM97 °FSunny.23 mph16%29.74 "Hg10 mi
3:00 PM97 °FSunny.23 mph10%29.74 "Hg10 mi
2:00 PM95 °FSunny.23 mph11%29.77 "Hg10 mi
1:00 PM95 °FSunny.23 mph11%29.77 "Hg10 mi
12:00 PM93 °FSunny.18 mph14%29.80 "Hg10 mi
Weather by CustomWeather, © 2015

See weather overviewHow to use our weather pages